QPF
0.01 0.02 0.03 0.03 0.01 0.00 0.00 0.00 0.00 0.00 0.00 0.00 0.00 0.00 0.00 0.00 0.00 0.00 0.00 0.00 0.00 0.00 0.00 0.00 0.00 0.02 0.03 0.02 0.02 0.04 0.04 0.04 0.03 0.03 0.03 0.03 0.03 0.04 0.07 0.09 0.10 0.09 0.09 0.08
0.01 0.01 0.01 0.01 0.01 0.01 0.00 0.00 0.00 0.00 0.00 0.00 0.00 0.00 0.00 0.00 0.00 0.00 0.00 0.00 0.00 0.00 0.00 0.00 0.00 0.01 0.01 0.02 0.02 0.02 0.04 0.04 0.04 0.05 0.05 0.04 0.05 0.04 0.03 0.05 0.09 0.11 0.10 0.08
0.00 0.00 0.01 0.01 0.01 0.02 0.01 0.00 0.00 0.00 0.00 0.00 0.00 0.00 0.00 0.00 0.00 0.00 0.00 0.00 0.00 0.00 0.00 0.00 0.00 0.00 0.00 0.01 0.01 0.02 0.04 0.04 0.03 0.04 0.05 0.04 0.04 0.06 0.05 0.04 0.05 0.07 0.10 0.10
0.00 0.00 0.01 0.01 0.01 0.01 0.01 0.00 0.00 0.00 0.01 0.01 0.01 0.00 0.00 0.00 0.00 0.00 0.00 0.00 0.00 0.00 0.00 0.00 0.00 0.00 0.00 0.00 0.01 0.01 0.02 0.04 0.04 0.04 0.05 0.04 0.04 0.04 0.06 0.06 0.06 0.05 0.06 0.07
0.01 0.01 0.01 0.01 0.01 0.01 0.01 0.00 0.00 0.00 0.01 0.01 0.01 0.01 0.00 0.00 0.00 0.00 0.00 0.00 0.00 0.00 0.00 0.00 0.00 0.00 0.00 0.00 0.00 0.01 0.01 0.02 0.03 0.04 0.05 0.05 0.05 0.04 0.05 0.05 0.05 0.06 0.06 0.05
0.02 0.01 0.02 0.02 0.01 0.01 0.01 0.01 0.01 0.01 0.01 0.02 0.01 0.01 0.00 0.00 0.00 0.00 0.00 0.00 0.00 0.00 0.00 0.00 0.00 0.00 0.00 0.00 0.00 0.00 0.00 0.01 0.01 0.03 0.03 0.04 0.05 0.05 0.05 0.05 0.04 0.04 0.05 0.04
0.01 0.01 0.01 0.00 0.01 0.01 0.02 0.02 0.03 0.02 0.02 0.01 0.00 0.00 0.00 0.00 0.00 0.00 0.00 0.00 0.00 0.00 0.00 0.00 0.00 0.00 0.00 0.00 0.00 0.00 0.00 0.00 0.00 0.01 0.02 0.03 0.03 0.04 0.05 0.05 0.06 0.05 0.04 0.04
0.01 0.01 0.01 0.01 0.01 0.01 0.01 0.02 0.02 0.02 0.01 0.00 0.00 0.00 0.00 0.00 0.00 0.00 0.00 0.00 0.00 0.00 0.00 0.00 0.00 0.00 0.00 0.00 0.00 0.00 0.00 0.00 0.00 0.00 0.01 0.01 0.02 0.03 0.03 0.04 0.04 0.05 0.05 0.05
0.01 0.01 0.01 0.00 0.00 0.00 0.01 0.01 0.01 0.02 0.01 0.01 0.00 0.00 0.00 0.00 0.00 0.00 0.00 0.00 0.00 0.00 0.00 0.00 0.00 0.00 0.00 0.00 0.00 0.00 0.00 0.00 0.00 0.00 0.00 0.00 0.01 0.02 0.02 0.02 0.02 0.03 0.03 0.04
0.01 0.01 0.01 0.00 0.00 0.00 0.01 0.01 0.02 0.02 0.02 0.01 0.00 0.00 0.00 0.00 0.00 0.00 0.00 0.00 0.00 0.00 0.00 0.00 0.00 0.00 0.00 0.00 0.00 0.00 0.00 0.00 0.00 0.00 0.00 0.00 0.01 0.01 0.02 0.02 0.02 0.02 0.02 0.03
0.01 0.02 0.01 0.01 0.01 0.00 0.00 0.01 0.02 0.02 0.02 0.01 0.01 0.01 0.00 0.00 0.00 0.00 0.00 0.00 0.00 0.00 0.00 0.00 0.00 0.00 0.00 0.00 0.00 0.00 0.00 0.00 0.00 0.00 0.00 0.00 0.00 0.01 0.01 0.02 0.03 0.03 0.02 0.02
0.01 0.02 0.02 0.01 0.00 0.00 0.00 0.01 0.01 0.02 0.01 0.01 0.01 0.01 0.00 0.00 0.00 0.00 0.00 0.00 0.00 0.00 0.00 0.00 0.00 0.00 0.00 0.00 0.00 0.00 0.00 0.00 0.00 0.00 0.00 0.00 0.00 0.01 0.01 0.02 0.02 0.02 0.03 0.03
0.02 0.03 0.03 0.03 0.02 0.01 0.01 0.01 0.00 0.01 0.02 0.01 0.01 0.00 0.00 0.00 0.00 0.00 0.00 0.00 0.00 0.00 0.00 0.00 0.00 0.00 0.00 0.00 0.00 0.00 0.00 0.00 0.01 0.01 0.01 0.01 0.01 0.01 0.01 0.02 0.02 0.02 0.02 0.03
0.04 0.05 0.03 0.02 0.01 0.01 0.01 0.01 0.00 0.01 0.02 0.01 0.00 0.00 0.00 0.00 0.00 0.00 0.00 0.00 0.00 0.00 0.00 0.00 0.00 0.00 0.00 0.00 0.00 0.00 0.01 0.01 0.01 0.01 0.01 0.01 0.01 0.01 0.01 0.01 0.01 0.02 0.02 0.02
0.05 0.06 0.03 0.01 0.01 0.01 0.01 0.01 0.01 0.01 0.01 0.01 0.00 0.00 0.00 0.00 0.00 0.00 0.00 0.00 0.00 0.00 0.00 0.00 0.00 0.00 0.00 0.00 0.00 0.01 0.01 0.01 0.01 0.01 0.02 0.02 0.02 0.02 0.01 0.01 0.01 0.01 0.02 0.02
0.05 0.05 0.03 0.02 0.01 0.01 0.01 0.01 0.01 0.01 0.00 0.00 0.00 0.00 0.00 0.00 0.00 0.00 0.00 0.00 0.00 0.00 0.00 0.00 0.00 0.00 0.00 0.00 0.00 0.01 0.01 0.01 0.02 0.02 0.02 0.02 0.02 0.02 0.02 0.01 0.01 0.02 0.02 0.02
0.04 0.05 0.04 0.03 0.01 0.02 0.01 0.00 0.00 0.00 0.00 0.00 0.00 0.00 0.00 0.00 0.00 0.00 0.00 0.00 0.00 0.00 0.00 0.00 0.00 0.00 0.00 0.00 0.01 0.01 0.01 0.02 0.02 0.02 0.02 0.02 0.01 0.01 0.01 0.01 0.01 0.02 0.02 0.03
0.03 0.04 0.06 0.04 0.03 0.03 0.01 0.00 0.00 0.00 0.00 0.00 0.00 0.00 0.00 0.00 0.00 0.00 0.00 0.00 0.00 0.00 0.00 0.00 0.00 0.00 0.00 0.01 0.01 0.01 0.01 0.02 0.02 0.02 0.02 0.02 0.02 0.01 0.01 0.01 0.01 0.02 0.02 0.03
0.02 0.04 0.07 0.06 0.04 0.02 0.00 0.00 0.00 0.00 0.00 0.00 0.00 0.00 0.00 0.00 0.00 0.00 0.00 0.00 0.00 0.00 0.00 0.00 0.00 0.01 0.01 0.01 0.01 0.01 0.01 0.02 0.02 0.02 0.02 0.02 0.02 0.01 0.01 0.01 0.02 0.02 0.02 0.02
0.02 0.03 0.06 0.06 0.04 0.02 0.00 0.00 0.00 0.01 0.01 0.00 0.00 0.00 0.00 0.00 0.00 0.00 0.00 0.00 0.00 0.00 0.00 0.00 0.00 0.01 0.01 0.01 0.01 0.01 0.01 0.02 0.02 0.02 0.02 0.02 0.02 0.02 0.02 0.02 0.02 0.02 0.02 0.02
0.03 0.05 0.06 0.04 0.04 0.02 0.01 0.00 0.00 0.01 0.01 0.00 0.00 0.00 0.00 0.00 0.00 0.00 0.00 0.00 0.01 0.01 0.00 0.01 0.01 0.01 0.01 0.01 0.01 0.01 0.01 0.02 0.02 0.02 0.02 0.02 0.02 0.02 0.02 0.02 0.02 0.02 0.02 0.03
0.01 0.02 0.03 0.03 0.04 0.02 0.00 0.01 0.01 0.01 0.00 0.00 0.00 0.00 0.00 0.00 0.00 0.00 0.00 0.00 0.01 0.01 0.01 0.01 0.01 0.01 0.01 0.01 0.01 0.01 0.02 0.02 0.02 0.02 0.01 0.02 0.02 0.02 0.02 0.02 0.02 0.02 0.02 0.02
0.01 0.01 0.01 0.01 0.01 0.00 0.00 0.01 0.01 0.00 0.00 0.00 0.00 0.01 0.01 0.01 0.01 0.01 0.01 0.01 0.01 0.01 0.01 0.01 0.01 0.01 0.01 0.01 0.01 0.01 0.01 0.01 0.01 0.01 0.01 0.02 0.02 0.02 0.02 0.02 0.02 0.02 0.02 0.02
0.01 0.01 0.01 0.02 0.01 0.00 0.01 0.01 0.01 0.01 0.01 0.01 0.01 0.01 0.01 0.01 0.01 0.01 0.01 0.01 0.01 0.01 0.01 0.01 0.01 0.01 0.01 0.01 0.01 0.01 0.01 0.01 0.01 0.01 0.01 0.02 0.02 0.02 0.02 0.02 0.02 0.02 0.02 0.02
0.01 0.01 0.02 0.02 0.01 0.01 0.01 0.01 0.01 0.01 0.01 0.01 0.01 0.01 0.01 0.01 0.00 0.00 0.00 0.00 0.00 0.00 0.00 0.01 0.01 0.01 0.00 0.01 0.01 0.01 0.01 0.01 0.01 0.01 0.01 0.02 0.02 0.02 0.02 0.02 0.02 0.02 0.02 0.02
0.01 0.01 0.01 0.02 0.01 0.01 0.01 0.01 0.01 0.01 0.01 0.01 0.01 0.01 0.00 0.00 0.00 0.00 0.00 0.00 0.00 0.00 0.00 0.00 0.01 0.01 0.01 0.01 0.01 0.01 0.01 0.01 0.02 0.02 0.02 0.02 0.02 0.02 0.02 0.02 0.02 0.02 0.02 0.02
MSLP
1021.35 1021.52 1021.73 1021.93 1022.10 1022.23 1022.32 1022.37 1022.42 1022.49 1022.59 1022.75 1022.95 1023.17 1023.39 1023.56 1023.66 1023.67 1023.56 1023.36 1023.06 1022.71 1022.32 1021.94 1021.60 1021.31 1021.09 1020.94 1020.86 1020.86 1020.94 1021.08 1021.30 1021.57 1021.88 1022.23 1022.60 1022.95 1023.28 1023.56 1023.79 1023.98 1024.13 1024.26
1021.84 1022.06 1022.29 1022.51 1022.67 1022.77 1022.80 1022.80 1022.80 1022.82 1022.89 1023.03 1023.24 1023.49 1023.74 1023.97 1024.11 1024.16 1024.10 1023.93 1023.67 1023.34 1022.99 1022.64 1022.31 1022.03 1021.80 1021.63 1021.51 1021.44 1021.43 1021.47 1021.58 1021.74 1021.96 1022.23 1022.52 1022.82 1023.11 1023.36 1023.56 1023.72 1023.84 1023.95
1022.44 1022.69 1022.93 1023.14 1023.27 1023.32 1023.31 1023.24 1023.17 1023.15 1023.19 1023.32 1023.54 1023.81 1024.11 1024.38 1024.59 1024.69 1024.67 1024.55 1024.33 1024.04 1023.72 1023.41 1023.12 1022.86 1022.64 1022.47 1022.32 1022.21 1022.13 1022.08 1022.08 1022.14 1022.25 1022.41 1022.61 1022.82 1023.04 1023.23 1023.39 1023.51 1023.59 1023.66
1023.11 1023.37 1023.60 1023.78 1023.87 1023.87 1023.78 1023.66 1023.53 1023.47 1023.49 1023.62 1023.85 1024.17 1024.52 1024.84 1025.11 1025.26 1025.30 1025.21 1025.03 1024.77 1024.49 1024.20 1023.95 1023.72 1023.53 1023.37 1023.23 1023.09 1022.97 1022.86 1022.78 1022.74 1022.74 1022.79 1022.88 1022.99 1023.12 1023.24 1023.33 1023.39 1023.42 1023.45
1023.80 1024.05 1024.26 1024.40 1024.43 1024.36 1024.21 1024.03 1023.87 1023.77 1023.79 1023.94 1024.22 1024.58 1024.99 1025.39 1025.71 1025.91 1025.98 1025.92 1025.76 1025.52 1025.25 1024.98 1024.75 1024.55 1024.40 1024.27 1024.15 1024.03 1023.90 1023.76 1023.63 1023.51 1023.41 1023.36 1023.34 1023.35 1023.38 1023.41 1023.43 1023.43 1023.40 1023.38
1024.48 1024.70 1024.87 1024.95 1024.92 1024.79 1024.59 1024.36 1024.17 1024.08 1024.12 1024.31 1024.64 1025.08 1025.56 1026.02 1026.40 1026.65 1026.75 1026.70 1026.53 1026.28 1026.00 1025.73 1025.50 1025.33 1025.21 1025.13 1025.06 1024.98 1024.87 1024.74 1024.58 1024.41 1024.25 1024.11 1024.00 1023.91 1023.84 1023.79 1023.73 1023.66 1023.58 1023.50
1025.11 1025.29 1025.41 1025.43 1025.34 1025.16 1024.92 1024.67 1024.48 1024.40 1024.48 1024.74 1025.15 1025.66 1026.23 1026.76 1027.19 1027.48 1027.59 1027.54 1027.34 1027.06 1026.75 1026.46 1026.23 1026.06 1025.97 1025.94 1025.92 1025.90 1025.85 1025.75 1025.60 1025.42 1025.22 1025.02 1024.83 1024.66 1024.51 1024.38 1024.26 1024.13 1023.99 1023.84
1025.68 1025.83 1025.90 1025.87 1025.74 1025.51 1025.24 1024.99 1024.81 1024.77 1024.91 1025.23 1025.72 1026.33 1026.98 1027.58 1028.07 1028.38 1028.50 1028.44 1028.21 1027.89 1027.53 1027.20 1026.94 1026.78 1026.71 1026.72 1026.77 1026.81 1026.83 1026.78 1026.67 1026.50 1026.28 1026.04 1025.80 1025.57 1025.36 1025.17 1024.99 1024.81 1024.62 1024.42
1026.20 1026.33 1026.38 1026.32 1026.16 1025.91 1025.63 1025.38 1025.23 1025.23 1025.42 1025.81 1026.38 1027.06 1027.78 1028.45 1028.98 1029.33 1029.46 1029.38 1029.12 1028.76 1028.36 1027.99 1027.71 1027.53 1027.48 1027.52 1027.62 1027.73 1027.80 1027.82 1027.75 1027.60 1027.39 1027.14 1026.86 1026.59 1026.34 1026.10 1025.88 1025.66 1025.43 1025.18
1026.74 1026.87 1026.91 1026.84 1026.67 1026.43 1026.15 1025.91 1025.77 1025.80 1026.03 1026.47 1027.09 1027.82 1028.60 1029.31 1029.89 1030.27 1030.41 1030.33 1030.07 1029.68 1029.25 1028.85 1028.54 1028.36 1028.31 1028.37 1028.51 1028.66 1028.79 1028.85 1028.82 1028.70 1028.50 1028.24 1027.95 1027.66 1027.37 1027.11 1026.86 1026.62 1026.36 1026.07
1027.35 1027.51 1027.57 1027.52 1027.36 1027.12 1026.85 1026.61 1026.48 1026.51 1026.75 1027.19 1027.82 1028.58 1029.38 1030.12 1030.73 1031.14 1031.31 1031.25 1031.00 1030.62 1030.18 1029.78 1029.47 1029.28 1029.23 1029.30 1029.45 1029.63 1029.79 1029.87 1029.86 1029.76 1029.56 1029.30 1028.99 1028.68 1028.38 1028.10 1027.84 1027.58 1027.31 1027.01
1028.08 1028.29 1028.39 1028.38 1028.25 1028.02 1027.75 1027.50 1027.35 1027.35 1027.55 1027.96 1028.55 1029.28 1030.07 1030.82 1031.44 1031.88 1032.09 1032.08 1031.87 1031.53 1031.14 1030.76 1030.46 1030.28 1030.24 1030.31 1030.45 1030.63 1030.78 1030.86 1030.85 1030.73 1030.53 1030.25 1029.94 1029.62 1029.31 1029.02 1028.75 1028.49 1028.22 1027.92
1028.97 1029.24 1029.40 1029.43 1029.32 1029.11 1028.82 1028.54 1028.34 1028.27 1028.39 1028.72 1029.24 1029.91 1030.64 1031.37 1031.99 1032.46 1032.72 1032.78 1032.65 1032.39 1032.07 1031.75 1031.49 1031.34 1031.30 1031.35 1031.48 1031.62 1031.74 1031.79 1031.75 1031.61 1031.39 1031.09 1030.76 1030.42 1030.10 1029.81 1029.55 1029.30 1029.04 1028.75
1030.02 1030.34 1030.56 1030.62 1030.53 1030.31 1029.99 1029.66 1029.38 1029.22 1029.23 1029.45 1029.85 1030.42 1031.08 1031.76 1032.38 1032.87 1033.19 1033.33 1033.31 1033.15 1032.93 1032.70 1032.51 1032.39 1032.36 1032.40 1032.50 1032.60 1032.66 1032.66 1032.57 1032.39 1032.12 1031.80 1031.45 1031.10 1030.78 1030.49 1030.23 1029.99 1029.76 1029.49
1031.19 1031.56 1031.79 1031.87 1031.77 1031.52 1031.16 1030.76 1030.38 1030.11 1030.01 1030.09 1030.38 1030.83 1031.40 1032.02 1032.62 1033.13 1033.51 1033.74 1033.83 1033.80 1033.69 1033.57 1033.45 1033.39 1033.38 1033.41 1033.47 1033.52 1033.52 1033.45 1033.30 1033.07 1032.76 1032.41 1032.05 1031.69 1031.36 1031.08 1030.83 1030.61 1030.40 1030.17
1032.43 1032.80 1033.02 1033.07 1032.93 1032.64 1032.21 1031.73 1031.27 1030.89 1030.67 1030.63 1030.80 1031.14 1031.62 1032.18 1032.75 1033.28 1033.71 1034.03 1034.23 1034.32 1034.34 1034.32 1034.30 1034.29 1034.31 1034.34 1034.36 1034.35 1034.30 1034.16 1033.95 1033.67 1033.33 1032.96 1032.58 1032.23 1031.91 1031.64 1031.41 1031.21 1031.02 1030.82
1033.64 1033.96 1034.13 1034.11 1033.91 1033.55 1033.05 1032.50 1031.96 1031.50 1031.19 1031.06 1031.12 1031.38 1031.78 1032.29 1032.83 1033.37 1033.84 1034.23 1034.52 1034.73 1034.86 1034.95 1035.01 1035.07 1035.11 1035.14 1035.14 1035.09 1034.98 1034.80 1034.55 1034.23 1033.87 1033.49 1033.11 1032.77 1032.47 1032.21 1032.01 1031.83 1031.67 1031.50
1034.73 1034.96 1035.03 1034.91 1034.62 1034.17 1033.61 1033.00 1032.41 1031.91 1031.55 1031.36 1031.38 1031.57 1031.92 1032.39 1032.91 1033.44 1033.94 1034.38 1034.74 1035.03 1035.26 1035.44 1035.57 1035.68 1035.76 1035.80 1035.79 1035.72 1035.58 1035.37 1035.09 1034.76 1034.39 1034.02 1033.67 1033.35 1033.07 1032.85 1032.67 1032.52 1032.37 1032.23
1035.60 1035.70 1035.64 1035.40 1035.01 1034.48 1033.87 1033.23 1032.63 1032.12 1031.76 1031.57 1031.57 1031.74 1032.07 1032.50 1033.00 1033.52 1034.02 1034.48 1034.89 1035.24 1035.53 1035.78 1035.98 1036.13 1036.25 1036.31 1036.31 1036.23 1036.09 1035.87 1035.59 1035.26 1034.92 1034.57 1034.25 1033.97 1033.74 1033.55 1033.40 1033.28 1033.15 1033.01
1036.18 1036.14 1035.93 1035.57 1035.08 1034.49 1033.85 1033.21 1032.64 1032.17 1031.85 1031.70 1031.72 1031.89 1032.21 1032.62 1033.09 1033.59 1034.08 1034.54 1034.96 1035.34 1035.67 1035.96 1036.21 1036.42 1036.57 1036.67 1036.69 1036.64 1036.51 1036.31 1036.05 1035.75 1035.44 1035.14 1034.86 1034.63 1034.44 1034.30 1034.18 1034.07 1033.97 1033.84
1036.42 1036.24 1035.90 1035.44 1034.87 1034.24 1033.60 1033.00 1032.48 1032.08 1031.84 1031.75 1031.81 1032.01 1032.33 1032.72 1033.16 1033.62 1034.08 1034.52 1034.93 1035.32 1035.68 1036.00 1036.30 1036.55 1036.75 1036.89 1036.96 1036.95 1036.86 1036.69 1036.47 1036.22 1035.95 1035.70 1035.47 1035.28 1035.14 1035.03 1034.95 1034.87 1034.78 1034.66
1036.31 1036.01 1035.58 1035.04 1034.43 1033.80 1033.19 1032.65 1032.21 1031.90 1031.74 1031.72 1031.84 1032.06 1032.38 1032.75 1033.15 1033.56 1033.98 1034.38 1034.77 1035.16 1035.53 1035.89 1036.23 1036.54 1036.80 1037.00 1037.13 1037.18 1037.14 1037.03 1036.87 1036.66 1036.44 1036.23 1036.05 1035.90 1035.80 1035.72 1035.66 1035.61 1035.54 1035.43
1035.86 1035.49 1035.00 1034.43 1033.82 1033.22 1032.67 1032.21 1031.86 1031.65 1031.57 1031.62 1031.77 1032.01 1032.31 1032.65 1033.01 1033.37 1033.73 1034.10 1034.47 1034.85 1035.24 1035.65 1036.04 1036.42 1036.76 1037.04 1037.24 1037.36 1037.39 1037.34 1037.23 1037.08 1036.90 1036.73 1036.58 1036.46 1036.38 1036.33 1036.29 1036.25 1036.19 1036.10
1035.12 1034.72 1034.23 1033.67 1033.10 1032.56 1032.09 1031.72 1031.47 1031.34 1031.33 1031.43 1031.60 1031.84 1032.11 1032.40 1032.70 1033.00 1033.32 1033.65 1034.01 1034.41 1034.83 1035.29 1035.76 1036.22 1036.64 1037.01 1037.31 1037.51 1037.62 1037.63 1037.58 1037.47 1037.33 1037.19 1037.06 1036.96 1036.89 1036.84 1036.81 1036.78 1036.74 1036.67
1034.18 1033.79 1033.32 1032.82 1032.32 1031.87 1031.50 1031.22 1031.06 1031.00 1031.04 1031.15 1031.32 1031.53 1031.76 1031.99 1032.23 1032.48 1032.76 1033.07 1033.43 1033.85 1034.33 1034.85 1035.40 1035.95 1036.48 1036.95 1037.34 1037.63 1037.82 1037.90 1037.90 1037.83 1037.73 1037.60 1037.48 1037.39 1037.31 1037.27 1037.24 1037.21 1037.18 1037.12
1033.12 1032.77 1032.36 1031.94 1031.54 1031.19 1030.92 1030.74 1030.65 1030.64 1030.71 1030.82 1030.96 1031.12 1031.28 1031.45 1031.63 1031.83 1032.08 1032.38 1032.76 1033.21 1033.75 1034.35 1034.99 1035.64 1036.27 1036.84 1037.33 1037.71 1037.97 1038.12 1038.17 1038.15 1038.07 1037.97 1037.86 1037.76 1037.68 1037.63 1037.59 1037.57 1037.54 1037.49
Thickness
5532 5535 5538 5540 5540 5545 5546 5546 5546 5545 5541 5540 5547 5550 5555 5555 5554 5557 5559 5558 5558 5557 5555 5555 5556 5558 5559 5561 5562 5564 5565 5566 5566 5567 5568 5567 5567 5566 5566 5566 5566 5565 5565 5565
5525 5527 5531 5528 5527 5529 5532 5532 5535 5534 5530 5531 5537 5543 5549 5550 5548 5550 5550 5550 5549 5548 5547 5546 5546 5549 5551 5552 5553 5554 5556 5556 5556 5558 5558 5558 5558 5557 5557 5556 5556 5556 5556 5556
5522 5522 5519 5519 5518 5519 5523 5525 5528 5526 5523 5523 5527 5545 5548 5546 5541 5540 5540 5540 5539 5537 5537 5537 5536 5538 5540 5542 5543 5544 5545 5546 5547 5548 5548 5548 5548 5548 5547 5547 5547 5546 5546 5546
5511 5510 5509 5511 5513 5514 5517 5517 5515 5513 5516 5524 5521 5537 5550 5543 5539 5536 5534 5532 5530 5528 5526 5526 5526 5527 5529 5530 5531 5533 5534 5536 5536 5537 5539 5541 5542 5542 5540 5538 5537 5537 5536 5536
5504 5500 5502 5505 5506 5504 5506 5504 5504 5504 5505 5507 5511 5516 5544 5533 5534 5534 5528 5523 5519 5516 5516 5515 5515 5516 5517 5518 5520 5522 5524 5525 5526 5527 5528 5530 5531 5531 5529 5528 5528 5527 5526 5526
5493 5490 5491 5496 5495 5494 5492 5494 5494 5493 5495 5497 5510 5511 5536 5533 5531 5527 5519 5513 5508 5505 5504 5504 5504 5504 5505 5506 5508 5510 5513 5514 5514 5515 5517 5518 5519 5519 5518 5518 5518 5517 5517 5516
5485 5484 5481 5483 5486 5484 5487 5490 5491 5490 5489 5501 5499 5501 5521 5520 5513 5511 5508 5503 5497 5494 5493 5493 5493 5493 5494 5495 5496 5498 5500 5502 5503 5504 5505 5506 5507 5508 5508 5508 5507 5508 5507 5507
5480 5485 5477 5475 5481 5481 5481 5485 5487 5490 5495 5500 5485 5495 5512 5501 5495 5494 5492 5489 5486 5483 5482 5481 5480 5480 5481 5482 5484 5486 5487 5489 5491 5492 5493 5494 5495 5496 5497 5497 5497 5497 5498 5498
5474 5476 5467 5464 5466 5472 5472 5475 5477 5473 5459 5468 5493 5495 5494 5487 5484 5481 5478 5477 5476 5474 5471 5469 5469 5469 5469 5470 5472 5474 5476 5477 5479 5480 5482 5482 5483 5484 5485 5485 5486 5486 5486 5486
5458 5458 5458 5454 5456 5457 5462 5465 5461 5463 5466 5477 5487 5491 5505 5491 5484 5476 5471 5469 5466 5462 5459 5458 5457 5457 5457 5458 5460 5462 5464 5465 5466 5468 5470 5470 5471 5472 5472 5473 5474 5474 5474 5474
5443 5445 5445 5443 5445 5451 5447 5448 5453 5458 5458 5468 5478 5495 5491 5487 5479 5471 5465 5460 5455 5451 5449 5447 5445 5444 5444 5445 5447 5449 5451 5453 5454 5455 5457 5458 5459 5459 5460 5461 5461 5462 5462 5462
5431 5435 5436 5439 5436 5435 5441 5446 5446 5449 5443 5447 5462 5481 5469 5465 5462 5458 5453 5448 5443 5439 5436 5434 5433 5432 5432 5433 5434 5436 5438 5439 5441 5442 5443 5445 5445 5446 5447 5448 5448 5448 5449 5450
5418 5418 5426 5434 5427 5419 5422 5430 5431 5433 5437 5441 5450 5471 5453 5448 5446 5444 5440 5435 5430 5426 5424 5422 5421 5420 5420 5420 5421 5423 5424 5426 5427 5429 5430 5431 5432 5433 5434 5434 5435 5435 5436 5437
5414 5407 5417 5435 5437 5423 5416 5419 5420 5419 5427 5437 5446 5463 5453 5443 5438 5434 5429 5424 5419 5415 5413 5412 5410 5409 5408 5407 5408 5409 5410 5411 5413 5415 5416 5418 5418 5418 5420 5420 5421 5422 5422 5422
5401 5400 5397 5406 5409 5406 5408 5411 5411 5411 5422 5428 5443 5445 5449 5441 5432 5425 5419 5413 5408 5406 5403 5401 5399 5397 5396 5395 5394 5395 5395 5396 5398 5400 5401 5402 5403 5403 5404 5405 5406 5407 5407 5407
5386 5386 5379 5383 5392 5391 5395 5407 5407 5406 5412 5418 5423 5430 5430 5421 5416 5412 5407 5402 5400 5398 5395 5391 5387 5384 5382 5381 5381 5380 5381 5381 5382 5384 5386 5386 5387 5388 5389 5389 5390 5391 5392 5392
5375 5370 5377 5388 5374 5373 5391 5411 5409 5409 5407 5409 5416 5425 5414 5408 5405 5403 5398 5394 5391 5388 5384 5379 5375 5371 5369 5367 5366 5366 5366 5366 5367 5369 5370 5370 5372 5373 5373 5373 5374 5375 5376 5377
5362 5361 5365 5370 5361 5379 5418 5403 5403 5400 5399 5397 5399 5403 5400 5397 5391 5387 5384 5381 5379 5375 5370 5366 5361 5357 5354 5352 5351 5350 5351 5352 5353 5354 5355 5355 5356 5357 5357 5358 5359 5360 5361 5362
5359 5357 5356 5355 5366 5385 5396 5388 5384 5385 5393 5392 5388 5388 5382 5373 5371 5376 5369 5366 5364 5361 5356 5351 5346 5343 5340 5338 5337 5337 5337 5338 5339 5340 5340 5340 5341 5342 5342 5343 5344 5345 5346 5347
5343 5345 5348 5345 5358 5374 5401 5376 5368 5371 5381 5382 5375 5373 5366 5360 5372 5380 5360 5352 5348 5343 5339 5335 5331 5328 5326 5325 5324 5323 5324 5324 5325 5326 5326 5326 5327 5328 5328 5329 5329 5330 5331 5332
5334 5335 5339 5343 5352 5370 5373 5355 5355 5366 5381 5368 5363 5360 5353 5353 5360 5353 5342 5336 5332 5327 5323 5320 5318 5316 5314 5312 5311 5311 5311 5312 5311 5311 5312 5312 5312 5313 5314 5314 5315 5315 5316 5317
5342 5340 5336 5337 5342 5362 5351 5343 5354 5362 5351 5346 5345 5344 5339 5335 5331 5327 5324 5320 5316 5312 5309 5306 5304 5303 5301 5299 5299 5299 5298 5298 5297 5297 5298 5298 5298 5299 5299 5300 5300 5301 5302 5303
5336 5343 5344 5343 5355 5348 5337 5338 5335 5332 5332 5331 5329 5327 5324 5318 5316 5313 5309 5306 5302 5299 5296 5293 5291 5289 5288 5286 5285 5286 5285 5283 5283 5283 5283 5283 5283 5284 5284 5285 5286 5287 5288 5289
5319 5313 5319 5320 5333 5328 5321 5317 5314 5312 5313 5314 5312 5311 5309 5307 5304 5300 5296 5292 5289 5285 5282 5280 5277 5276 5275 5273 5271 5271 5270 5269 5269 5269 5269 5270 5270 5271 5270 5271 5272 5274 5274 5275
5317 5303 5306 5310 5318 5312 5313 5306 5303 5300 5296 5295 5294 5294 5293 5291 5289 5287 5283 5280 5276 5273 5269 5266 5264 5263 5262 5260 5258 5256 5255 5255 5256 5256 5256 5256 5257 5257 5257 5258 5259 5260 5262 5263
5297 5296 5304 5315 5309 5304 5306 5296 5290 5286 5284 5282 5281 5280 5278 5277 5275 5273 5270 5267 5263 5259 5255 5252 5251 5249 5248 5246 5244 5243 5242 5241 5242 5244 5244 5244 5244 5244 5244 5245 5246 5247 5248 5250